When you browse on this site, cookies collect data to enhance your experience and personalize the content and advertising you see.
Visit our Privacy Policy to learn more. By continuing to use the site, you agree to this use of cookies and data.
  • In Germany
  • List of Countries
  • For 7 days
  • Water Temperature
  • Weather Map
  • Weather Widgets
  • user-avatar
    Login

    Hourly Weather Eisenstadt

    Today, 17 November, Sunday

    Time Temperature Precipitation Wind Pressure Humidity
    00:00 +9°C° 0 mm 1 mps 720 mmHg 91%
    01:00 +9°C° 0 mm 1 mps 720 mmHg 92%
    02:00 +9°C° 0 mm 1 mps 720 mmHg 93%
    03:00 +8°C° 0 mm 1 mps 719 mmHg 94%
    04:00 +8°C° 0 mm 1 mps 719 mmHg 94%
    05:00 +8°C° 0 mm 1 mps 719 mmHg 95%
    06:00 +8°C° 0 mm 1 mps 718 mmHg 96%
    07:00 +7°C° 0 mm 2 mps 718 mmHg 97%
    08:00 +8°C° 0 mm 2 mps 718 mmHg 94%
    09:00 +9°C° 0 mm 3 mps 718 mmHg 91%
    10:00 +10°C° 0 mm 3 mps 718 mmHg 88%
    11:00 +11°C° 0 mm 3 mps 718 mmHg 86%
    12:00 +11°C° 0 mm 4 mps 718 mmHg 84%
    13:00 +12°C° 0 mm 4 mps 717 mmHg 81%
    14:00 +12°C° 0 mm 4 mps 717 mmHg 83%
    15:00 +12°C° 0 mm 3 mps 717 mmHg 86%
    16:00 +11°C° 0 mm 3 mps 716 mmHg 88%
    17:00 +11°C° 0 mm 3 mps 716 mmHg 89%
    18:00 +10°C° 0 mm 3 mps 716 mmHg 90%
    19:00 +10°C° 0 mm 3 mps 716 mmHg 91%
    20:00 +9°C° 0 mm 3 mps 716 mmHg 90%
    21:00 +9°C° 0 mm 3 mps 715 mmHg 90%
    22:00 +9°C° 0 mm 3 mps 715 mmHg 90%
    23:00 +9°C° 0.1 mm 3 mps 715 mmHg 90%

    Tomorrow, 18 November, Monday

    Time Temperature Precipitation Wind Pressure Humidity
    00:00 +9°C° 0.1 mm 2 mps 715 mmHg 91%
    01:00 +9°C° 0.1 mm 2 mps 715 mmHg 91%
    02:00 +9°C° 0.3 mm 2 mps 715 mmHg 92%
    03:00 +9°C° 0.3 mm 2 mps 715 mmHg 93%
    04:00 +8°C° 0.3 mm 2 mps 714 mmHg 93%
    05:00 +9°C° 0.8 mm 2 mps 715 mmHg 95%
    06:00 +9°C° 0.8 mm 2 mps 715 mmHg 96%
    07:00 +9°C° 0.8 mm 2 mps 715 mmHg 97%
    08:00 +9°C° 0.2 mm 2 mps 715 mmHg 97%
    09:00 +9°C° 0.2 mm 2 mps 716 mmHg 96%
    10:00 +9°C° 0.2 mm 2 mps 716 mmHg 96%
    11:00 +10°C° 0 mm 2 mps 716 mmHg 90%
    12:00 +12°C° 0 mm 2 mps 717 mmHg 85%
    13:00 +11°C° 0 mm 3 mps 717 mmHg 79%
    14:00 +10°C° 0 mm 2 mps 718 mmHg 81%
    15:00 +9°C° 0 mm 2 mps 718 mmHg 83%
    16:00 +9°C° 0 mm 2 mps 718 mmHg 85%
    17:00 +9°C° 0 mm 1 mps 719 mmHg 86%
    18:00 +8°C° 0 mm 1 mps 720 mmHg 87%
    19:00 +7°C° 0 mm 1 mps 720 mmHg 87%
    20:00 +7°C° 0 mm 1 mps 720 mmHg 88%
    21:00 +6°C° 0 mm 1 mps 721 mmHg 89%
    22:00 +6°C° 0 mm 1 mps 721 mmHg 89%
    23:00 +6°C° 0 mm 1 mps 721 mmHg 90%

    Day after tomorrow, 19 November, Tuesday

    Time Temperature Precipitation Wind Pressure Humidity
    00:00 +6°C° 0 mm 1 mps 721 mmHg 90%
    01:00 +6°C° 0 mm 1 mps 722 mmHg 90%
    02:00 +5°C° 0 mm 2 mps 721 mmHg 91%
    03:00 +5°C° 0 mm 2 mps 721 mmHg 91%
    04:00 +5°C° 0 mm 2 mps 721 mmHg 92%
    05:00 +5°C° 0 mm 2 mps 721 mmHg 93%
    06:00 +5°C° 0 mm 2 mps 721 mmHg 93%
    07:00 +5°C° 0 mm 2 mps 721 mmHg 94%
    08:00 +6°C° 0 mm 2 mps 721 mmHg 89%
    09:00 +7°C° 0 mm 3 mps 722 mmHg 84%
    10:00 +8°C° 0 mm 3 mps 722 mmHg 79%
    11:00 +8°C° 0 mm 3 mps 721 mmHg 78%
    12:00 +9°C° 0 mm 3 mps 721 mmHg 77%
    13:00 +9°C° 0 mm 3 mps 721 mmHg 76%
    14:00 +9°C° 0 mm 3 mps 721 mmHg 80%
    15:00 +8°C° 0 mm 2 mps 721 mmHg 84%
    16:00 +8°C° 0 mm 2 mps 721 mmHg 88%
    17:00 +9°C° 0 mm 1 mps 721 mmHg 89%
    18:00 +8°C° 0 mm 1 mps 721 mmHg 90%
    19:00 +8°C° 0 mm 1 mps 721 mmHg 91%
    20:00 +8°C° 0 mm 1 mps 721 mmHg 91%
    21:00 +8°C° 0 mm 1 mps 722 mmHg 91%
    22:00 +8°C° 0 mm 1 mps 722 mmHg 91%
    23:00 +7°C° 0 mm 0 mps 722 mmHg 90%

    20 November, Wednesday

    Time Temperature Precipitation Wind Pressure Humidity
    00:00 +6°C° 0 mm 0 mps 722 mmHg 89%
    01:00 +6°C° 0 mm 0 mps 722 mmHg 89%
    02:00 +7°C° 0 mm 1 mps 722 mmHg 90%
    03:00 +7°C° 0 mm 1 mps 722 mmHg 90%
    04:00 +7°C° 0 mm 1 mps 722 mmHg 91%
    05:00 +7°C° 0 mm 1 mps 722 mmHg 92%
    06:00 +6°C° 0 mm 1 mps 722 mmHg 92%
    07:00 +6°C° 0 mm 1 mps 722 mmHg 93%
    08:00 +7°C° 0 mm 1 mps 722 mmHg 89%
    09:00 +8°C° 0 mm 1 mps 723 mmHg 86%
    10:00 +9°C° 0 mm 1 mps 723 mmHg 83%
    11:00 +9°C° 0 mm 1 mps 723 mmHg 81%
    12:00 +10°C° 0 mm 1 mps 723 mmHg 80%
    13:00 +10°C° 0 mm 1 mps 723 mmHg 79%
    14:00 +10°C° 0 mm 1 mps 723 mmHg 83%
    15:00 +9°C° 0 mm 1 mps 723 mmHg 87%
    16:00 +7°C° 0 mm 0 mps 722 mmHg 91%
    17:00 +7°C° 0 mm 0 mps 722 mmHg 92%
    18:00 +6°C° 0 mm 0 mps 722 mmHg 93%
    19:00 +6°C° 0 mm 0 mps 722 mmHg 94%
    20:00 +7°C° 0 mm 1 mps 723 mmHg 94%
    21:00 +7°C° 0 mm 1 mps 723 mmHg 94%
    22:00 +7°C° 0 mm 1 mps 723 mmHg 95%
    23:00 +6°C° 0 mm 2 mps 722 mmHg 95%

    21 November, Thursday

    Time Temperature Precipitation Wind Pressure Humidity
    00:00 +6°C° 0 mm 2 mps 722 mmHg 95%
    01:00 +6°C° 0 mm 2 mps 722 mmHg 95%
    02:00 +6°C° 0 mm 2 mps 722 mmHg 95%
    03:00 +6°C° 0 mm 2 mps 722 mmHg 95%
    04:00 +6°C° 0 mm 2 mps 722 mmHg 96%
    05:00 +6°C° 0 mm 2 mps 722 mmHg 95%
    06:00 +6°C° 0 mm 2 mps 722 mmHg 95%
    07:00 +5°C° 0 mm 2 mps 722 mmHg 95%
    08:00 +5°C° 0 mm 3 mps 722 mmHg 93%
    09:00 +7°C° 0 mm 3 mps 722 mmHg 92%
    10:00 +8°C° 0 mm 3 mps 722 mmHg 90%
    11:00 +7°C° 0 mm 4 mps 722 mmHg 88%
    12:00 +7°C° 0 mm 4 mps 722 mmHg 87%
    13:00 +8°C° 0 mm 4 mps 722 mmHg 85%
    14:00 +8°C° 0 mm 4 mps 722 mmHg 87%
    15:00 +7°C° 0 mm 4 mps 721 mmHg 89%
    16:00 +7°C° 0 mm 4 mps 721 mmHg 91%
    17:00 +7°C° 0 mm 4 mps 721 mmHg 91%
    18:00 +7°C° 0 mm 4 mps 721 mmHg 91%
    19:00 +7°C° 0 mm 4 mps 721 mmHg 90%
    20:00 +7°C° 0 mm 4 mps 721 mmHg 91%
    21:00 +7°C° 0 mm 4 mps 722 mmHg 91%
    22:00 +6°C° 0 mm 4 mps 722 mmHg 92%
    23:00 +6°C° 0 mm 4 mps 722 mmHg 92%

    22 November, Friday

    Time Temperature Precipitation Wind Pressure Humidity
    00:00 +6°C° 0 mm 4 mps 721 mmHg 92%
    01:00 +6°C° 0 mm 4 mps 721 mmHg 93%
    02:00 +6°C° 0 mm 4 mps 721 mmHg 93%
    03:00 +5°C° 0 mm 4 mps 721 mmHg 93%
    04:00 +5°C° 0 mm 4 mps 721 mmHg 93%
    05:00 +5°C° 0 mm 4 mps 721 mmHg 93%
    06:00 +5°C° 0 mm 4 mps 722 mmHg 92%
    07:00 +5°C° 0 mm 4 mps 722 mmHg 92%
    08:00 +5°C° 0 mm 4 mps 722 mmHg 90%
    09:00 +5°C° 0 mm 4 mps 722 mmHg 87%
    10:00 +6°C° 0 mm 4 mps 722 mmHg 85%
    11:00 +6°C° 0 mm 4 mps 722 mmHg 82%
    12:00 +7°C° 0 mm 5 mps 722 mmHg 79%
    13:00 +8°C° 0 mm 5 mps 722 mmHg 76%
    14:00 +7°C° 0 mm 5 mps 721 mmHg 78%
    15:00 +7°C° 0 mm 4 mps 721 mmHg 81%
    16:00 +7°C° 0 mm 4 mps 721 mmHg 83%
    17:00 +7°C° 0 mm 4 mps 721 mmHg 85%
    18:00 +6°C° 0 mm 4 mps 721 mmHg 87%
    19:00 +6°C° 0 mm 5 mps 721 mmHg 89%
    20:00 +6°C° 0 mm 5 mps 721 mmHg 90%
    21:00 +6°C° 0 mm 5 mps 722 mmHg 91%
    22:00 +6°C° 0 mm 4 mps 722 mmHg 91%
    23:00 +5°C° 0 mm 4 mps 721 mmHg 92%
    Show more